Regional Weather Roundup
Issued by NWS

Home | Current Version | Previous Version | Graphics & Text | Print | Product List | Glossary On
Versions: 1 2 3 4 5 6 7 8 9 10 11 12 13 14 15 16 17 18 19 20 21 22 23 24 25 26 27 28
000
ASUS45 KBOI 221410
RWRID

IDAHO REGIONAL WEATHER ROUNDUP
NATIONAL WEATHER SERVICE BOISE ID
800 AM MDT FRI JUL 22 2016

NOTE: "FAIR" INDICATES FEW OR NO CLOUDS BELOW 12000 FEET
WITH NO SIGNIFICANT WEATHER AND/OR OBSTRUCTIONS TO VISIBILITY

IDZ012-014-221500-
SOUTHWEST IDAHO


CITY           SKY/WX    TMP DP  RH WIND       PRES   REMARKS
BOISE          MOSUNNY   75  41  29 N3        30.08R
CALDWELL       MOSUNNY   68  53  58 W3        30.08R
MOUNTAIN HOME  MOSUNNY   75  29  18 N6        30.08R
$$

IDZ016-017-221500-
SOUTHCENTRAL IDAHO


CITY           SKY/WX    TMP DP  RH WIND       PRES   REMARKS
BURLEY         SUNNY     72  36  26 SW13      30.13R
JEROME         PTSUNNY   70  33  25 SW6       30.13R
TWIN FALLS     MOSUNNY   74  23  15 SW13      30.15R
$$

IDZ019>023-221500-
SOUTHEAST IDAHO


CITY           SKY/WX    TMP DP  RH WIND       PRES   REMARKS
IDAHO FALLS    CLOUDY    77  42  28 S12       30.14R
POCATELLO      MOSUNNY   78  32  18 SW18      30.15R
REXBURG        MOSUNNY   66  50  56 NE3       30.15R
$$

IDZ006-010-011-018-031-032-221500-
CENTRAL IDAHO MOUNTAINS


CITY           SKY/WX    TMP DP  RH WIND       PRES   REMARKS
MCCALL         SUNNY     56  41  57 CALM      30.16R
HAILEY         PTSUNNY   61  37  41 NW6       30.19R
STANLEY          N/A     50  34  54 CALM      30.28R
SALMON         PTSUNNY   55  45  67 NE5       30.06S
CHALLIS        MOSUNNY   63  34  33 S5        30.13R
$$

IDZ002-004-006-007-026-221500-
NORTHERN IDAHO


CITY           SKY/WX    TMP DP  RH WIND       PRES   REMARKS
LEWISTON       SUNNY     75  48  38 W16G29    30.03R
LOWELL           N/A     58  54  86 CALM      30.08R
COEUR D`ALENE  PTSUNNY   64  52  63 SW8       29.98R
MULLAN PASS    MOSUNNY   56  39  53 NW5       30.14S
$$




USA.gov is the U.S. government's official web portal to all federal, state and local government web resources and services.